Location: Altoona
(40.5167°N, 78.4000°W)
Time: 16:21:22
(UTC-05:00)

USA 238 - Pass Details

Date: 21 August 2017
Orbit: 1077 x 1136 km, 63.4° (Epoch: 19 November)

Event Time Altitude Azimuth Distance (km) Brightness Sun altitude
Rises 21:26:43 0° 328° (NNW) 3,932 7.8 -15.5°
Reaches altitude 10° 21:29:31 10° 334° (NNW) 2,980 6.9 -16.0°
Maximum altitude 21:36:22 49° 48° (NE) 1,418 4.2 -17.1°
Enters shadow 21:40:16 26° 110° (ESE) 2,070 4.6 -17.7°
